GFSCGP_925_spd_000.txt.gz
Wind_Speed
17 15 17 19 18 17 15 13 17 16 18 25 13 16 18 18 17 16 16 14 15 15 18 19 23 24 22 19 18 13 14 9 8 6 6 7 7 9 11 11 11 9 10 8
16 20 21 18 20 20 19 11 12 13 16 11 16 20 18 17 17 18 17 16 16 16 16 17 18 15 17 18 21 16 13 11 9 8 8 7 7 8 10 11 8 5 6 6
20 22 22 18 16 16 16 11 10 15 12 4 12 18 13 15 15 17 18 18 17 17 19 16 19 20 19 16 18 16 14 12 11 9 8 6 7 8 9 2 4 4 3 8
23 22 21 18 17 17 18 12 18 15 14 11 15 13 18 23 18 16 18 19 19 19 18 18 21 21 21 21 18 20 15 13 10 7 2 3 4 8 3 3 3 10 10 8
22 21 23 21 19 16 12 16 18 13 11 14 14 9 15 16 16 16 19 20 20 21 21 20 21 22 23 24 21 19 17 13 13 7 3 2 5 9 7 3 6 9 12 9
22 17 19 20 20 16 18 10 17 9 11 14 17 12 6 9 17 17 9 18 20 21 21 19 26 27 23 24 22 21 19 14 12 10 7 3 0 2 4 6 6 10 6 9
23 25 15 14 18 20 18 11 8 9 11 13 15 15 10 19 22 21 20 31 21 19 18 17 19 24 25 26 22 22 20 17 15 12 8 3 2 1 4 6 7 6 10 6
16 18 20 16 21 15 13 16 9 13 12 13 13 9 16 10 15 27 25 27 22 21 19 19 17 25 27 25 24 24 23 20 17 14 10 5 3 4 3 2 1 3 7 7
18 21 21 22 17 16 15 17 18 18 13 6 7 9 11 9 9 5 9 11 18 21 20 21 20 26 27 25 25 24 23 20 19 17 13 8 7 5 5 2 2 5 4 5
18 15 21 17 16 15 16 17 13 12 9 10 8 9 10 15 10 11 9 6 7 17 21 19 18 27 29 26 24 25 23 21 21 18 15 12 10 7 7 5 5 6 8 9
25 18 19 21 15 21 15 11 9 12 10 9 9 4 13 11 8 7 7 8 4 9 15 18 15 26 30 29 27 25 23 21 20 18 15 10 7 8 9 7 7 8 9 9
25 8 13 27 20 23 21 16 10 9 9 8 9 5 13 11 10 9 7 3 6 2 11 16 15 24 27 27 27 26 25 22 20 18 15 12 9 9 7 7 7 8 9 10
18 13 10 14 19 20 18 16 20 17 13 13 11 5 7 7 7 6 5 5 6 9 8 14 14 15 25 28 27 28 26 24 21 18 16 13 11 11 10 9 8 8 9 11
15 19 13 14 16 17 22 22 22 19 12 14 12 6 11 11 9 9 6 5 7 9 9 14 13 15 26 29 29 27 27 25 23 23 19 17 16 13 11 10 10 9 12 12
14 11 16 18 20 19 17 23 21 20 19 17 11 8 3 3 8 2 2 3 6 5 12 14 16 15 23 26 28 27 26 22 22 20 15 14 14 14 13 13 12 13 13 14
11 8 11 18 18 18 21 23 23 24 23 23 20 16 21 14 11 7 1 5 7 5 8 8 17 16 20 26 28 27 25 21 16 19 18 15 15 16 16 15 13 14 13 11
14 13 13 16 17 20 20 21 21 18 17 15 13 5 12 11 4 2 2 4 6 7 7 10 10 12 20 28 29 28 24 23 22 18 16 16 16 15 16 16 16 13 10 13
10 14 12 14 17 20 17 19 17 14 15 15 16 17 8 7 2 2 1 5 4 7 8 9 7 12 22 28 28 27 25 25 23 23 20 19 18 18 18 19 16 12 12 14
12 5 11 14 15 14 20 6 8 15 16 10 7 9 4 7 3 6 11 5 0 4 5 7 10 14 24 28 29 27 25 24 22 23 23 21 20 20 20 19 16 13 14 16
23 27 18 4 11 18 15 10 6 17 12 18 19 3 10 6 5 6 9 5 2 3 3 6 7 12 25 27 28 26 25 25 26 26 24 22 21 20 19 18 15 12 14 17
14 8 11 11 12 17 13 6 13 7 9 14 2 8 6 4 7 8 5 4 3 4 5 6 8 12 22 24 28 25 24 21 26 24 22 22 22 20 17 13 11 12 18 19
16 4 9 12 15 17 11 9 10 8 8 7 10 11 8 5 6 8 11 5 8 7 8 10 10 17 19 21 22 24 23 25 17 17 16 16 18 17 13 11 8 14 12 15
9 9 7 3 2 20 12 16 15 7 8 8 6 5 6 7 9 9 8 13 9 8 9 11 14 15 19 23 15 12 8 4 3 6 9 11 8 9 9 8 5 11 16 19
6 7 0 5 7 5 10 15 13 10 5 3 4 4 6 9 10 9 8 11 6 8 11 11 13 14 14 17 14 6 6 3 3 6 7 7 7 7 11 14 15 17 10 2
12 5 5 11 11 12 13 10 7 8 8 9 9 9 11 11 9 9 7 2 7 9 14 20 21 23 27 21 27 26 22 10 6 8 5 8 10 12 17 2 7 3 4 2
7 3 1 9 10 9 11 7 12 10 10 9 11 10 10 11 11 5 8 9 11 14 15 18 18 16 18 10 6 12 8 6 5 6 9 9 9 11 3 9 7 7 2 4

GFSCGP_925_spd_003.txt.gz
Wind_Speed
8 3 7 12 12 12 10 11 9 6 10 7 8 17 18 17 15 10 8 11 13 11 20 27 25 24 23 21 20 21 19 11 15 13 11 10 11 11 11 11 11 8 3 5
7 9 13 16 17 11 10 11 12 13 13 8 10 16 16 11 12 17 12 12 14 12 18 23 25 26 27 27 23 23 20 18 15 11 10 8 7 8 11 8 5 3 2 2
11 10 19 20 17 12 11 7 15 12 13 10 10 4 2 6 9 14 17 15 11 13 16 17 22 24 25 31 26 23 20 18 15 11 9 7 6 7 5 1 10 6 1 6
11 15 21 20 18 11 7 6 6 12 20 9 10 6 5 13 12 15 18 17 13 16 15 14 18 20 27 32 29 25 22 18 15 12 14 11 8 2 3 9 9 2 3 4
14 16 19 20 16 8 8 9 6 6 4 5 12 5 12 13 11 7 13 18 17 20 20 18 20 24 29 32 31 27 23 19 19 18 14 9 6 5 8 8 5 7 5 7
12 13 15 15 13 11 6 3 5 7 1 1 7 8 5 14 17 19 15 20 18 21 22 20 29 30 31 32 30 29 26 22 22 16 11 6 4 3 2 1 1 1 6 6
13 20 16 15 8 9 5 4 2 2 1 6 8 7 9 21 19 21 20 15 14 24 23 22 22 26 32 32 34 33 30 25 21 16 13 11 11 7 4 5 4 5 2 4
9 13 19 14 10 11 8 9 6 5 4 8 10 6 4 21 22 21 18 16 13 20 22 23 21 29 34 34 36 35 34 27 23 21 19 14 10 9 10 9 10 5 3 1
10 13 13 12 6 10 10 5 9 5 5 3 4 6 7 17 15 16 21 15 12 11 19 22 23 32 34 33 35 40 37 31 26 23 20 16 10 11 8 7 5 5 4 4
13 7 14 9 10 13 11 7 2 3 2 5 5 2 5 8 9 13 12 15 13 18 16 18 19 30 32 35 37 40 38 35 30 26 22 17 16 15 10 8 6 6 5 5
19 8 14 11 8 9 2 4 4 6 5 5 3 4 5 10 10 11 10 10 13 22 16 18 19 33 35 34 37 39 39 36 32 28 26 18 20 17 14 12 8 8 7 6
23 5 11 14 8 13 9 9 9 5 4 1 6 5 9 11 9 9 9 9 7 9 20 18 18 31 32 32 33 36 35 36 34 28 27 20 18 14 16 14 10 9 8 8
15 13 10 6 8 12 15 9 8 7 4 4 3 3 2 8 7 8 9 8 9 9 9 15 18 20 30 31 32 33 33 33 34 30 27 23 19 19 17 14 12 10 9 9
13 7 8 7 9 11 11 13 8 9 5 6 6 7 5 6 5 10 9 8 9 8 9 15 18 21 31 33 33 32 32 37 35 32 29 25 24 22 19 16 15 14 13 11
14 8 7 8 7 3 9 6 9 8 8 8 7 10 11 11 8 9 9 6 5 7 8 11 12 19 27 29 30 34 35 38 39 36 33 30 25 24 21 19 18 17 16 15
7 6 4 2 2 5 6 15 14 17 13 7 8 7 13 16 10 7 8 8 5 2 6 9 9 12 21 29 34 39 37 41 42 39 35 30 29 27 23 21 22 21 18 17
9 6 4 5 1 6 6 5 5 8 14 16 12 8 6 9 9 8 7 7 4 2 2 2 8 9 22 30 34 37 30 37 39 36 33 33 31 29 27 26 24 22 22 19
5 5 4 4 3 6 6 8 5 15 13 16 9 13 14 11 10 8 8 8 8 6 6 3 4 11 25 28 30 32 39 39 36 34 31 30 29 28 29 29 27 24 22 20
6 5 6 5 6 4 5 8 3 4 3 9 17 13 20 14 10 6 2 8 8 8 4 2 4 21 27 32 35 33 37 37 32 32 35 30 29 30 31 29 26 23 21 19
12 9 6 4 5 0 7 6 6 6 4 5 14 11 6 5 6 3 7 8 8 7 7 3 4 25 28 29 35 37 34 29 29 35 35 32 32 32 30 27 26 24 21 21
3 5 5 5 3 7 9 13 11 5 7 8 6 12 9 5 5 2 6 1 7 9 12 8 4 22 26 30 33 32 33 29 35 36 33 34 33 31 29 27 26 24 20 18
7 3 1 4 4 4 14 8 5 2 5 9 8 7 8 5 6 8 7 6 5 8 10 17 11 23 29 35 33 31 30 40 39 36 37 33 30 30 28 24 18 16 9 2
5 3 4 2 5 4 4 6 11 8 6 7 8 7 7 7 6 6 6 5 7 9 12 20 24 22 16 18 17 17 24 26 27 24 31 27 26 22 18 14 13 7 7 8
5 1 3 1 4 3 7 10 14 14 11 6 7 6 7 7 9 8 7 8 7 5 9 15 23 23 20 29 30 27 29 30 24 24 24 32 8 7 7 9 8 5 2 8
2 2 2 4 9 4 4 3 7 9 11 19 12 8 8 9 8 4 2 6 6 9 17 25 23 22 23 29 29 28 28 23 4 11 9 17 24 11 6 4 7 9 8 6
4 6 4 2 1 6 8 8 6 9 8 7 8 9 9 7 4 9 8 6 7 11 17 18 20 24 21 20 18 18 15 15 16 21 22 12 7 4 8 12 13 10 7 5

GFSCGP_925_spd_006.txt.gz
Wind_Speed
4 3 6 9 8 6 4 8 14 11 11 7 15 13 19 16 14 15 13 11 13 15 16 25 31 32 32 29 27 27 22 20 22 19 15 13 13 12 12 11 10 9 5 3
4 7 11 6 5 6 4 7 9 1 10 7 13 18 18 19 20 18 16 14 15 9 12 18 23 28 30 30 28 25 24 22 24 19 16 13 10 9 8 6 5 7 5 4
7 8 6 5 8 5 6 8 10 11 5 7 11 1 9 14 14 14 13 18 19 18 16 14 18 24 29 29 28 27 26 23 22 17 14 13 10 9 8 9 12 11 5 3
6 13 9 8 8 6 8 10 14 9 15 7 7 5 7 16 15 11 12 15 17 18 19 17 20 21 26 31 30 30 27 24 20 19 18 15 12 9 5 12 15 9 5 4
9 10 12 11 16 7 12 8 11 11 15 7 3 5 11 8 9 11 13 20 20 20 22 21 23 28 33 33 35 32 29 25 22 20 18 18 11 9 13 16 13 7 5 4
10 7 8 11 18 10 13 5 6 5 5 2 12 7 4 10 25 20 11 19 19 19 22 21 30 30 32 34 35 33 31 28 24 22 19 20 16 14 16 15 13 10 5 3
4 16 12 10 7 8 4 6 2 2 1 6 8 9 12 20 24 17 20 22 21 21 20 20 21 23 30 33 34 37 35 32 27 27 23 17 12 10 12 12 11 9 9 10
9 11 14 6 11 11 8 10 6 7 3 6 9 7 11 17 25 20 19 25 22 20 21 22 22 28 31 35 36 36 38 36 34 30 23 17 17 14 9 11 9 11 10 10
6 8 8 11 12 10 9 4 10 7 1 3 4 8 7 8 16 16 15 16 20 21 21 22 23 30 32 36 38 40 43 42 39 33 26 22 19 15 14 14 14 11 9 9
8 5 8 14 5 7 16 7 3 3 7 4 5 4 6 5 11 11 12 14 17 19 20 19 19 31 36 39 41 41 45 45 43 36 31 28 21 17 16 15 14 12 11 10
13 5 15 2 6 11 2 3 4 6 5 6 3 6 7 16 17 17 16 17 14 17 20 20 19 31 36 36 36 38 39 40 43 39 34 30 25 21 20 16 12 11 11 10
10 7 14 18 12 8 9 10 7 6 5 2 5 6 5 13 12 17 17 13 10 18 18 20 19 29 31 34 33 37 37 38 41 40 37 34 26 24 25 21 15 12 13 12
12 6 8 9 7 3 8 6 7 5 5 7 6 5 2 6 4 8 10 8 9 12 13 17 17 16 29 34 34 34 35 37 36 39 38 35 28 28 27 23 19 17 15 15
14 6 10 15 9 5 6 8 7 8 5 6 6 5 4 7 10 8 11 12 10 10 16 17 17 18 28 33 34 35 34 36 39 41 41 39 32 32 27 23 23 21 20 19
11 10 7 9 18 10 15 14 9 6 9 9 8 11 10 11 13 12 11 10 10 10 9 14 16 16 23 27 30 30 30 36 45 42 40 40 37 32 26 26 26 25 24 22
6 8 10 17 9 8 8 6 11 8 5 1 7 7 10 12 9 8 13 9 8 6 7 9 9 14 17 29 30 33 35 34 34 37 40 39 36 30 30 28 27 26 25 23
10 7 5 9 7 7 4 5 5 1 4 5 7 12 11 5 7 9 9 10 10 10 8 8 10 10 19 26 30 30 34 38 44 45 41 39 36 33 35 32 29 28 28 25
6 8 3 5 4 5 7 2 13 10 5 7 6 8 19 13 8 8 7 9 10 10 8 8 7 13 27 32 28 27 34 39 39 34 37 40 38 40 39 35 33 29 28 28
2 5 4 5 5 4 3 4 6 7 4 6 3 7 9 11 7 4 4 5 9 7 6 4 6 11 24 27 31 35 33 37 33 35 42 40 41 40 38 37 34 32 30 30
10 8 5 3 6 4 2 6 5 8 6 8 6 9 7 6 7 3 1 7 7 8 10 9 10 11 17 26 32 33 33 32 30 36 44 40 40 37 37 40 36 32 30 28
5 5 4 3 4 1 5 8 2 8 6 6 5 7 6 7 4 1 3 4 6 8 13 14 13 19 26 29 30 28 30 31 37 36 36 31 28 40 44 37 30 27 24 16
4 3 3 4 4 4 15 8 7 5 3 7 9 5 10 6 6 6 7 7 6 3 7 16 14 19 24 31 30 24 19 16 18 13 7 11 14 18 23 28 23 19 12 9
3 5 4 4 3 5 8 7 1 1 5 7 9 7 8 6 3 1 4 3 7 9 9 18 12 12 18 23 26 26 20 25 25 23 18 24 19 26 39 24 15 13 11 5
5 2 4 6 5 5 5 3 5 7 8 7 6 4 6 5 6 7 6 5 5 8 8 10 17 16 16 26 31 31 25 26 25 21 17 16 15 4 30 20 14 13 10 11
4 2 6 2 2 2 4 4 3 6 8 7 8 4 5 8 9 5 5 4 3 5 6 9 13 17 19 30 32 31 29 21 14 16 19 24 22 29 28 15 13 14 13 8
2 6 5 4 4 4 6 5 4 10 4 1 1 7 6 7 4 3 5 1 5 6 14 16 15 21 23 29 27 21 20 20 21 20 17 20 28 24 24 18 12 10 9 8

GFSCGP_925_spd_012.txt.gz
Wind_Speed
5 4 7 10 10 6 7 7 12 3 2 2 5 5 15 15 14 15 15 15 16 15 21 25 26 29 32 33 32 31 31 30 27 26 23 19 19 16 15 14 12 12 11 9
4 8 10 7 6 7 8 7 7 1 4 4 1 3 9 16 18 17 16 15 14 16 8 16 22 24 30 35 35 32 32 30 29 28 25 21 17 15 14 11 11 10 10 10
6 4 10 7 5 7 5 9 7 14 7 3 6 3 8 11 8 11 13 12 13 15 12 11 18 25 29 31 36 35 34 33 31 27 24 19 13 10 9 12 11 10 10 10
6 5 9 9 10 8 7 8 8 9 12 7 6 5 8 12 17 14 17 15 16 15 12 13 19 23 26 36 37 36 34 34 33 28 27 24 20 15 14 14 13 14 14 11
7 5 8 5 8 10 9 8 10 7 7 5 3 3 7 13 10 22 20 20 19 18 18 16 19 27 33 35 38 37 35 34 33 30 27 26 22 18 14 13 14 17 16 13
9 3 7 12 5 9 8 7 7 5 4 1 9 9 5 7 24 24 16 20 19 17 17 17 25 27 27 29 35 38 37 34 33 30 28 28 24 20 16 15 16 20 18 16
2 7 3 4 6 1 6 7 1 2 1 6 4 3 12 11 16 23 23 22 21 18 17 16 17 22 26 29 37 39 40 39 36 34 31 30 27 23 19 19 22 21 18 18
7 5 8 4 7 8 7 9 6 7 5 5 4 8 9 21 16 13 9 16 12 17 18 19 20 26 28 31 34 36 37 40 39 37 35 32 28 26 22 20 23 23 20 18
7 7 4 5 5 9 4 4 6 7 2 3 4 7 9 7 8 9 13 11 17 19 20 21 19 29 31 32 37 41 38 39 40 41 38 35 31 27 25 22 23 22 19 17
9 2 7 6 4 3 9 9 4 3 5 4 4 4 6 5 11 9 8 16 18 18 17 18 19 28 33 37 39 38 39 43 42 42 42 39 35 31 27 23 24 23 21 19
7 4 6 6 10 12 3 3 5 5 5 7 4 6 8 10 11 11 14 18 18 18 18 19 19 30 36 37 32 34 36 38 40 44 45 42 39 35 29 26 25 24 21 20
11 9 10 12 4 7 10 11 9 6 5 2 4 7 5 12 6 9 13 15 12 13 17 18 18 25 28 30 32 34 37 35 41 41 43 45 41 38 33 30 27 25 24 23
6 5 7 6 5 1 5 5 5 5 4 8 6 6 3 6 8 9 12 9 9 10 9 11 11 15 22 28 33 34 35 40 36 34 41 42 44 41 38 34 29 26 24 23
13 4 10 17 13 6 5 7 7 7 5 6 7 8 6 10 10 8 9 9 10 12 12 11 11 15 24 28 30 32 33 34 33 34 40 43 48 49 44 33 27 24 23 22
8 10 6 19 12 8 8 9 10 8 7 8 8 10 13 13 13 13 14 7 8 10 10 14 17 14 13 19 24 27 30 31 33 34 37 45 47 36 42 33 19 26 25 24
2 7 9 18 17 15 13 12 9 8 4 5 4 8 9 6 3 6 10 11 12 12 16 13 9 8 9 18 24 25 26 29 30 33 35 26 27 26 27 20 5 36 27 30
2 3 4 14 9 6 6 19 11 7 6 10 9 18 6 6 9 10 10 13 16 16 13 11 12 11 13 23 26 27 32 27 28 29 24 25 30 31 37 26 30 35 33 29
3 0 3 7 5 5 12 7 15 15 6 7 4 6 12 8 9 1 1 10 10 8 8 8 7 8 20 22 25 27 26 28 27 26 25 29 32 36 39 36 31 40 38 36
3 4 4 5 6 4 1 4 6 7 7 2 6 4 4 4 5 5 5 4 6 5 6 7 16 17 16 15 17 20 22 22 24 24 27 30 35 36 39 33 32 31 31 28
2 1 2 1 6 7 5 4 3 1 1 2 2 6 7 3 5 3 5 4 9 8 9 8 5 2 2 5 13 19 21 21 22 22 24 30 32 28 20 17 17 18 19 12
4 4 2 5 2 3 2 8 2 6 5 5 3 3 4 4 3 3 5 9 8 11 13 12 11 6 4 3 6 15 18 19 19 20 22 24 25 21 15 10 14 14 13 15
7 2 2 4 3 0 11 4 5 2 0 7 8 5 14 9 5 10 11 8 12 10 11 17 12 12 9 4 9 13 5 12 23 23 22 22 20 18 16 16 16 17 16 17
6 6 3 1 3 5 7 3 3 3 11 12 12 6 9 9 7 8 7 10 8 8 10 14 14 18 21 4 2 15 13 20 24 26 25 24 22 21 21 23 20 19 17 13
6 1 5 5 3 6 9 8 6 5 7 6 8 11 14 9 9 8 8 8 7 4 7 12 16 13 12 12 12 20 24 25 26 30 29 25 21 21 22 21 21 17 17 11
2 3 6 5 3 2 4 3 6 3 9 13 13 15 12 14 10 8 8 5 5 8 15 13 11 9 15 18 21 24 27 27 30 30 29 25 20 18 17 11 7 9 13 13
3 1 3 6 7 6 6 3 6 7 10 8 14 14 12 12 7 6 9 7 6 5 8 7 9 12 14 19 24 24 28 32 31 24 25 21 19 17 12 8 5 5 7 6

GFSCGP_925_spd_015.txt.gz
Wind_Speed
5 9 16 18 16 9 14 14 16 8 10 11 12 12 6 14 16 17 17 18 19 20 23 24 25 24 23 22 22 23 23 25 20 17 15 15 14 15 15 15 14 15 13 11
6 16 14 15 13 9 14 17 14 8 11 12 10 13 8 15 20 19 19 19 19 19 18 23 25 25 26 26 27 24 25 26 25 19 16 13 12 12 12 10 12 12 12 12
13 7 10 12 12 12 13 18 15 13 10 4 8 14 12 13 17 18 19 19 19 20 20 20 25 27 27 27 27 27 28 28 26 22 16 13 12 11 8 10 9 12 11 11
10 7 17 14 17 14 17 13 16 14 13 13 12 12 12 17 18 21 21 21 21 21 19 19 23 28 29 29 28 28 30 30 27 26 20 19 17 15 12 9 10 10 12 12
9 11 12 20 20 13 10 11 16 17 18 7 10 7 11 10 17 23 25 25 24 23 22 22 24 28 30 30 27 27 30 30 28 27 25 21 19 16 11 9 10 11 14 14
14 3 13 14 14 17 10 11 6 5 9 9 16 14 11 9 16 24 23 25 25 24 23 23 28 27 28 27 27 27 30 36 33 30 28 25 22 19 14 12 11 11 13 15
12 12 7 8 15 12 12 13 7 9 7 9 9 12 16 11 19 22 20 26 27 24 22 22 22 26 29 30 30 29 31 33 31 29 28 28 25 22 20 17 14 14 15 15
14 14 16 14 15 13 19 21 10 16 12 12 5 11 8 20 21 14 15 14 20 24 22 23 22 28 29 30 31 31 31 30 30 30 30 31 28 23 22 21 17 17 18 17
12 15 4 11 9 17 11 13 16 9 2 7 7 6 11 14 13 12 17 15 20 23 25 27 24 31 31 31 34 36 34 32 32 31 30 29 29 27 23 23 24 21 21 16
9 5 15 12 11 8 13 14 11 8 18 17 8 5 6 6 11 15 13 18 21 22 24 24 23 29 31 34 35 34 34 38 37 28 30 31 29 33 29 25 25 24 22 20
12 12 5 9 15 22 8 9 3 7 8 15 15 13 8 13 13 12 15 19 19 21 23 23 22 30 33 33 31 32 33 33 31 34 34 32 28 31 34 28 26 26 25 24
13 10 12 18 4 10 21 20 18 11 12 6 10 13 6 14 14 11 14 11 14 18 21 21 21 27 29 30 30 34 35 35 38 36 32 32 32 39 32 31 33 26 25 23
9 5 8 9 12 14 9 18 21 17 11 17 15 12 4 6 10 15 15 12 9 15 16 17 18 18 24 29 31 32 34 37 37 30 31 29 31 40 43 36 19 12 19 16
9 8 10 15 19 16 15 15 16 20 15 15 16 18 10 11 13 14 15 15 11 13 16 16 16 18 24 27 28 30 31 30 29 30 31 30 34 39 29 23 27 23 18 6
8 10 17 24 23 25 24 22 22 18 23 19 19 20 17 15 17 18 16 11 10 13 16 18 18 16 18 23 25 26 26 26 28 29 29 29 23 22 23 30 35 32 28 26
5 3 3 19 23 23 27 26 24 25 27 20 22 13 12 13 11 12 14 13 14 16 19 18 18 17 17 23 23 22 24 26 26 27 27 23 22 25 28 29 37 37 31 26
4 0 2 9 14 18 21 25 24 19 21 22 20 16 10 12 15 14 14 15 16 16 17 17 18 16 17 21 21 21 21 21 23 24 21 21 23 25 30 33 35 32 35 28
4 2 2 9 3 10 17 22 26 25 21 19 17 13 13 14 14 10 9 14 15 14 12 12 12 12 16 15 15 14 16 19 19 18 19 20 24 27 29 33 35 31 32 44
9 4 1 4 8 11 5 6 12 20 24 18 19 18 13 7 4 5 5 8 9 8 7 8 12 11 12 15 16 16 17 15 14 15 16 19 22 24 28 34 32 27 26 26
14 10 6 1 5 6 7 11 9 4 14 14 14 13 9 10 9 4 1 5 9 10 9 13 15 15 13 12 14 15 13 13 14 17 19 20 22 25 27 27 25 23 23 22
7 3 5 4 5 3 12 19 6 10 5 6 8 9 10 7 1 8 11 12 13 15 17 18 17 15 12 11 12 11 12 13 15 15 15 19 20 23 27 28 27 20 18 24
9 8 4 2 5 5 21 10 5 7 3 7 13 21 21 16 16 17 16 15 16 16 17 19 20 17 11 11 11 11 9 11 15 18 19 20 22 26 28 29 22 20 25 25
7 6 7 5 4 8 10 6 7 1 11 13 16 20 21 19 15 14 13 13 13 12 14 15 17 14 12 11 10 12 14 17 17 15 16 18 20 21 23 24 23 23 22 19
3 3 6 6 5 5 8 7 8 9 13 12 13 14 19 18 16 13 13 12 12 10 11 12 14 10 8 7 9 15 16 14 18 18 18 18 20 22 20 18 18 17 15 11
3 1 10 4 13 4 8 3 4 9 11 15 15 15 16 15 17 13 12 12 10 10 13 14 11 11 11 9 10 10 14 15 15 15 17 18 14 14 14 13 11 8 7 11
7 3 4 6 7 1 4 5 4 12 10 11 16 16 15 14 15 14 13 10 11 10 10 11 9 9 9 10 11 11 12 11 11 13 12 12 12 10 10 11 9 8 8 10

GFSCGP_925_spd_021.txt.gz
Wind_Speed
21 18 24 27 25 24 23 21 18 15 24 19 17 14 13 15 16 16 19 17 19 20 20 25 25 25 24 23 23 22 21 20 19 18 16 17 18 18 13 13 13 11 9 12
17 24 25 25 26 25 28 23 17 13 21 20 18 19 18 17 15 16 17 20 20 20 20 23 26 27 27 27 25 24 23 21 22 20 20 16 14 15 15 17 10 9 10 10
23 23 25 25 26 27 27 26 18 18 19 17 16 18 19 17 19 16 16 17 21 22 22 22 24 28 28 29 28 27 26 24 23 22 20 13 11 11 8 11 11 12 11 11
25 20 25 27 29 27 25 25 24 19 14 15 19 16 22 19 21 20 19 18 20 23 22 22 24 29 31 31 30 27 27 26 25 24 21 20 16 17 16 13 8 7 8 10
25 22 25 29 29 28 25 25 23 23 19 20 23 18 11 21 19 19 21 21 21 21 23 24 24 32 31 31 31 30 28 27 26 26 25 19 20 16 11 9 6 9 10 9
25 22 27 21 26 24 24 25 24 24 18 16 23 18 20 16 18 19 22 22 22 22 23 23 28 31 33 32 32 31 30 29 29 26 27 23 18 20 13 14 11 11 11 12
23 28 23 22 23 25 28 24 16 19 18 20 25 19 23 18 18 18 19 21 23 22 21 22 23 23 30 32 33 31 31 31 30 29 27 27 24 19 17 11 15 12 14 13
19 21 30 21 27 27 31 29 19 25 17 20 25 24 21 19 11 15 16 15 20 22 21 22 24 25 29 31 32 32 31 31 31 30 29 27 26 25 22 20 16 16 15 14
22 25 22 27 28 29 30 28 28 27 24 19 21 19 22 7 18 18 14 17 14 21 22 25 25 29 31 31 33 34 31 32 33 32 30 29 28 27 25 22 24 18 16 12
22 17 23 27 24 26 32 24 26 23 28 27 24 22 17 19 16 17 19 16 14 16 21 23 24 28 32 34 33 33 34 32 32 31 32 31 30 29 26 24 21 22 17 17
25 19 15 24 30 30 21 27 23 25 24 21 20 19 21 18 18 20 22 22 17 19 19 20 22 30 34 34 35 35 34 33 32 33 33 31 31 29 29 27 25 23 19 19
26 17 17 22 23 26 27 29 32 17 28 20 22 19 14 17 15 12 16 16 20 17 18 20 21 25 31 33 36 36 37 37 36 35 33 33 31 32 31 31 28 27 24 23
23 21 17 19 19 23 30 31 31 31 22 26 22 20 21 7 13 21 18 17 14 9 3 8 18 20 21 31 33 34 36 38 37 35 34 33 33 34 34 33 30 29 29 30
11 22 26 19 23 17 28 28 31 29 23 22 26 25 22 22 15 9 9 16 12 8 8 10 13 18 20 29 35 33 35 37 36 35 34 33 34 33 33 32 32 31 33 34
17 21 23 27 26 23 23 26 27 33 29 28 25 29 27 25 24 20 20 17 16 17 11 13 15 16 17 23 29 34 31 33 34 33 33 32 31 31 30 31 30 31 31 33
20 17 19 21 24 26 24 24 30 27 29 29 29 31 23 27 24 19 18 18 20 15 14 13 14 16 17 22 26 30 32 31 31 30 31 30 30 30 30 29 28 29 29 30
24 18 19 22 20 18 22 26 24 23 28 26 28 28 26 28 25 23 21 21 20 20 19 16 14 17 15 24 26 27 29 29 29 26 28 28 30 30 29 27 28 29 29 28
20 22 17 16 20 25 18 24 27 27 27 26 28 27 27 27 27 27 22 21 23 23 22 20 14 16 24 29 29 26 28 28 27 27 25 27 26 26 26 27 27 27 28 30
19 18 17 17 19 16 18 18 6 5 13 18 22 21 24 27 26 26 26 27 22 21 20 20 18 22 25 28 28 27 26 27 26 25 25 25 26 26 26 28 29 30 31 30
20 14 15 18 24 25 14 6 2 2 12 14 16 20 23 21 19 17 21 26 24 15 13 16 16 21 27 26 30 28 27 28 27 27 26 25 26 26 26 25 23 22 23 26
21 19 20 18 16 20 13 5 4 9 6 8 11 16 19 19 18 18 15 22 15 12 15 14 14 18 21 25 27 24 25 25 26 26 24 22 22 21 20 21 21 22 23 21
23 21 16 19 21 16 9 11 11 4 6 10 12 12 16 19 22 17 4 3 7 10 12 17 15 18 23 23 25 21 19 22 23 23 24 22 20 18 17 19 17 18 17 17
23 20 16 17 19 13 10 10 4 5 4 7 8 7 9 5 4 7 5 4 6 11 12 16 18 19 19 24 24 21 20 22 21 21 20 19 17 15 14 15 16 17 16 15
17 24 19 10 12 14 14 11 8 8 4 3 6 9 5 12 13 13 13 11 9 10 12 18 21 18 17 21 21 21 20 20 20 18 16 15 17 16 14 14 13 12 15 15
5 16 14 21 21 20 16 14 13 11 11 8 16 16 16 16 13 13 12 12 10 9 15 18 18 19 18 21 22 19 19 19 20 18 18 18 17 14 13 11 8 9 8 7
2 7 4 12 19 20 16 15 15 13 13 13 15 17 16 15 14 16 14 11 10 11 14 15 19 20 21 19 19 18 18 19 20 20 19 19 17 16 16 16 12 12 9 8

GFSCGP_925_spd_024.txt.gz
Wind_Speed
20 15 21 25 25 23 23 20 24 12 7 17 18 19 21 27 23 19 20 18 20 20 20 25 26 27 26 27 25 27 24 24 21 19 19 14 10 14 20 16 13 10 13 8
19 24 25 23 26 26 27 27 24 15 24 24 17 27 29 28 20 19 20 19 19 19 19 20 27 26 28 27 30 29 28 23 25 20 19 19 24 23 23 22 16 13 9 10
24 23 24 25 25 27 28 27 22 16 20 22 18 19 21 22 20 19 19 21 20 19 20 21 21 27 28 30 30 31 30 25 26 21 22 23 17 10 3 18 18 16 15 11
24 25 26 26 29 28 26 26 26 22 17 12 16 13 12 16 22 21 20 19 23 22 21 20 21 27 27 29 30 31 31 30 26 30 21 21 17 12 10 10 16 20 11 11
24 24 27 27 30 30 26 26 26 25 21 16 22 8 15 21 18 24 22 21 20 23 22 22 23 30 31 29 32 31 33 31 29 28 25 21 17 20 17 17 16 16 14 11
24 22 27 25 25 27 25 24 25 22 19 15 20 14 21 20 24 22 22 22 22 21 23 22 26 33 34 32 33 35 35 34 32 30 31 26 22 23 15 12 15 13 13 16
25 27 25 25 24 26 28 25 15 18 17 17 22 23 15 18 23 21 10 18 22 21 20 21 22 22 33 35 35 35 37 35 34 31 30 33 25 25 23 12 18 17 18 21
22 21 28 21 28 24 25 25 16 20 17 19 23 21 15 24 19 14 22 35 25 23 19 21 22 20 32 36 36 35 38 37 36 35 30 31 33 21 24 21 17 20 19 22
21 24 21 31 23 26 27 25 26 26 23 17 18 23 23 18 19 24 25 10 13 25 22 22 22 25 28 35 37 38 36 38 37 36 35 31 32 31 25 22 25 19 20 14
26 19 24 25 26 28 29 19 24 20 26 25 21 21 12 19 20 22 18 22 15 19 21 21 19 22 29 32 36 36 36 39 38 37 36 35 33 34 31 29 27 29 19 19
29 23 20 25 28 27 20 23 24 22 20 17 17 16 16 16 24 22 20 20 21 15 17 21 21 25 30 30 33 35 36 34 37 38 36 34 35 34 35 31 31 31 29 26
27 19 20 26 26 29 28 28 28 17 22 18 18 16 13 14 14 20 16 15 15 13 15 17 21 20 29 32 34 36 35 36 38 38 36 37 35 35 34 36 31 32 33 28
22 23 17 23 24 25 31 28 26 26 22 20 18 17 19 8 12 18 14 16 17 16 11 10 18 21 22 31 34 36 38 39 37 37 37 36 37 37 37 36 37 33 34 34
25 23 26 19 21 18 24 29 28 26 18 21 20 20 25 12 20 16 12 14 8 5 6 7 5 17 23 33 36 38 40 39 39 38 37 38 39 39 39 36 36 35 35 33
16 17 22 28 30 26 27 29 28 26 26 22 22 21 23 24 12 16 8 6 6 6 9 9 7 5 17 25 34 37 38 41 39 39 39 39 39 37 35 34 34 35 33 35
19 16 18 25 28 29 27 27 28 30 29 28 24 24 19 17 18 13 18 19 12 11 8 11 12 9 6 17 30 37 36 40 38 39 39 38 37 36 36 34 33 33 33 32
20 16 16 20 25 24 26 28 24 24 25 22 20 22 15 16 15 12 7 8 14 16 12 12 13 12 10 13 29 33 38 35 38 34 37 38 37 37 36 33 33 31 33 29
20 19 14 15 17 23 17 20 25 22 18 24 23 18 17 18 17 17 14 12 10 9 12 8 8 12 17 19 27 29 34 34 34 34 33 35 35 34 34 32 32 31 28 29
17 16 14 14 17 17 21 20 18 17 22 19 18 16 17 18 19 20 18 17 13 14 11 11 13 19 21 23 25 30 29 34 31 32 29 33 32 31 31 30 30 26 25 23
23 14 15 16 20 25 17 21 9 4 9 7 8 6 8 10 8 8 16 17 16 15 12 9 17 19 21 27 28 29 28 29 31 30 32 28 27 30 29 27 23 21 20 20
10 11 15 14 14 18 1 13 8 11 6 5 6 6 7 9 9 12 17 18 14 12 15 17 6 5 19 29 29 27 27 26 28 25 26 26 28 26 25 23 22 21 20 17
9 8 12 12 15 12 16 10 5 1 4 4 4 5 8 10 13 13 14 14 5 8 7 6 4 1 17 25 26 25 22 24 25 25 25 24 25 23 22 22 19 21 19 15
14 13 10 8 8 13 1 11 9 6 4 3 2 6 6 11 15 14 3 6 3 4 7 4 5 12 12 12 22 20 20 26 25 26 25 23 21 18 21 20 22 20 16 15
13 12 15 9 2 11 13 11 10 7 7 12 13 12 11 5 7 12 8 3 5 7 10 13 14 14 11 16 18 20 25 24 24 24 25 24 23 22 22 18 18 19 16 14
5 16 11 17 13 12 10 10 9 13 16 16 19 19 21 20 20 14 11 12 10 10 13 17 14 12 15 19 20 20 25 26 25 20 22 22 23 21 19 16 15 14 14 15
5 6 5 1 9 9 14 16 19 20 21 19 18 18 18 18 13 13 13 13 11 13 17 15 18 19 15 16 17 18 20 25 24 20 19 18 19 20 18 22 21 15 15 11

GFSCGP_925_spd_027.txt.gz
Wind_Speed
11 8 16 14 15 10 15 14 16 13 11 10 9 10 13 14 9 11 20 20 20 20 15 26 32 32 35 36 35 35 30 27 35 33 29 24 18 16 16 16 14 21 15 12
11 19 14 13 12 18 20 19 20 15 19 10 18 12 14 14 17 14 19 21 21 20 18 20 28 31 35 37 39 39 36 30 36 34 30 26 23 21 22 23 18 21 15 19
18 9 17 18 18 19 22 21 16 8 5 5 13 1 8 11 11 14 15 22 22 23 21 18 23 30 33 36 41 41 39 33 30 30 29 24 17 19 17 23 18 20 18 16
14 18 19 22 21 20 18 23 20 18 13 10 14 6 14 16 17 16 19 21 22 22 21 21 22 27 34 35 41 42 41 37 32 30 30 26 23 22 19 20 27 25 17 15
19 18 21 20 24 19 23 14 19 20 15 14 13 6 7 18 18 20 16 22 22 22 23 24 24 35 36 38 40 43 45 41 37 34 29 27 26 28 22 17 23 25 20 18
18 11 19 20 16 21 14 15 18 17 11 6 19 12 9 8 21 15 8 11 24 22 24 24 34 37 34 38 38 40 44 43 40 37 35 30 29 25 25 18 20 24 25 20
17 23 17 21 16 17 20 11 12 10 11 10 14 16 10 12 12 21 24 20 17 26 23 23 23 24 34 35 39 40 42 39 41 40 37 37 31 29 24 20 27 29 27 25
14 17 23 13 22 12 18 17 13 12 12 10 9 10 10 18 16 28 21 15 13 14 23 23 23 27 36 38 39 38 42 40 41 43 42 40 39 29 33 27 27 28 27 26
16 16 8 22 18 20 9 20 13 5 9 6 8 10 10 20 15 21 20 18 10 9 13 25 24 30 36 39 40 43 41 41 42 41 43 42 40 41 32 32 25 27 24 26
13 7 20 16 23 16 19 6 14 13 15 20 15 11 9 10 19 18 19 16 14 9 11 16 23 24 38 43 41 42 43 45 44 43 40 41 42 41 40 31 31 27 28 24
25 18 17 14 20 21 8 18 10 8 12 11 11 16 6 11 20 20 20 24 24 22 24 26 23 30 38 41 41 41 42 43 41 42 40 37 39 42 40 39 32 34 28 27
23 17 17 25 19 24 25 16 10 8 5 5 7 14 8 13 16 26 25 18 15 23 33 27 22 23 29 38 39 41 39 42 44 43 40 41 37 36 39 39 40 37 35 34
18 20 12 19 17 21 26 19 17 15 5 14 5 17 16 11 9 16 8 8 10 9 10 20 22 21 21 34 39 41 41 42 42 41 40 38 37 36 38 40 37 42 40 39
9 20 30 19 21 5 10 22 19 19 13 13 22 11 12 5 9 11 18 14 10 10 10 14 21 21 22 34 39 41 42 42 43 42 41 39 39 40 40 37 40 39 42 43
2 16 22 27 17 14 24 14 26 23 22 13 14 15 13 13 10 10 14 11 17 7 7 10 21 20 20 26 34 40 41 43 43 42 41 41 40 38 37 36 36 43 38 42
11 7 19 18 29 27 26 17 20 28 23 19 13 15 5 8 7 11 9 21 7 5 9 9 13 23 23 24 31 37 39 41 44 42 43 40 38 37 37 37 36 34 38 36
10 4 8 13 9 14 23 31 21 11 17 18 18 15 7 9 4 5 5 7 14 8 9 9 10 16 19 28 35 35 40 41 42 41 39 40 39 38 38 35 34 33 35 32
21 15 8 5 7 11 10 12 17 15 8 15 10 11 10 10 9 9 8 3 4 4 6 8 10 8 19 33 36 39 37 41 41 40 39 39 40 39 36 35 34 32 31 33
17 11 6 5 10 1 7 7 5 7 11 5 7 9 8 9 7 5 2 8 11 10 10 8 7 11 23 29 35 34 34 37 40 37 39 40 41 37 36 36 32 33 29 26
16 14 9 3 7 16 3 6 7 3 3 5 11 9 9 5 3 4 2 4 3 8 8 12 13 11 20 27 32 32 32 32 33 38 39 38 38 37 36 34 32 30 30 30
4 6 10 4 4 4 2 5 4 9 7 6 9 8 8 5 4 4 8 7 0 3 7 16 19 12 22 32 32 28 32 33 38 35 32 34 35 34 34 34 31 32 32 29
5 5 4 3 3 3 7 3 8 6 3 8 6 6 7 5 4 4 6 8 7 3 8 6 7 10 22 30 33 26 26 33 31 28 30 29 32 31 33 34 31 31 29 26
3 2 5 10 3 2 6 6 13 6 8 6 5 7 5 8 8 12 9 9 6 8 8 12 9 11 11 17 30 22 25 32 32 31 30 31 31 30 33 32 29 26 25 22
5 9 4 8 7 3 3 3 14 17 14 15 14 14 17 18 15 14 14 11 10 8 8 10 13 11 9 17 22 26 32 35 33 29 28 29 31 31 29 28 27 27 24 21
2 8 8 6 15 12 12 3 10 14 11 14 17 17 15 18 14 13 13 12 11 10 10 13 9 11 14 23 24 27 32 37 31 29 29 29 27 31 28 26 21 22 20 19
3 1 3 3 6 3 5 18 13 15 16 13 15 17 16 16 13 13 11 8 9 8 13 12 13 17 17 25 27 28 33 39 34 28 25 27 28 30 29 28 24 17 15 12

GFSCGP_925_spd_030.txt.gz
Wind_Speed
6 5 13 11 7 6 4 5 8 11 4 4 17 19 20 25 22 22 21 21 21 23 20 23 36 37 34 36 41 41 41 43 41 34 28 26 23 22 20 17 17 18 17 17
4 13 8 8 7 10 9 13 17 9 10 8 10 20 19 25 26 27 24 22 23 20 18 21 30 36 39 38 40 40 45 45 43 36 32 27 26 23 22 19 18 17 20 20
12 8 12 10 11 11 15 16 15 9 7 1 8 3 3 9 14 17 22 24 22 24 21 20 23 34 39 38 40 43 45 45 44 39 34 29 25 24 24 23 22 24 20 23
10 12 13 18 14 14 13 15 14 8 4 7 6 4 6 10 9 14 20 21 22 23 22 21 24 31 37 40 43 44 45 44 41 41 38 34 29 28 30 28 23 22 23 23
10 19 19 16 18 18 14 12 10 10 6 4 4 4 7 9 12 11 18 24 23 24 24 23 25 37 42 41 41 45 47 45 42 41 40 39 34 32 26 23 20 25 25 23
18 8 15 16 13 17 14 7 8 3 5 8 14 13 6 11 12 17 17 20 26 24 25 25 36 38 37 39 39 39 42 42 44 43 43 42 39 33 29 27 20 25 28 25
10 18 6 10 10 11 11 7 5 7 8 10 10 6 12 18 19 24 23 22 25 25 24 23 22 22 32 35 37 38 41 39 43 47 46 44 41 34 31 32 29 27 29 29
12 9 19 11 17 15 9 15 9 10 4 5 6 9 13 15 17 26 27 22 22 24 24 25 25 28 35 37 39 40 41 40 41 44 46 45 41 37 34 31 31 30 33 34
8 13 4 15 13 17 10 10 12 6 3 2 4 7 6 10 12 24 25 22 23 27 26 28 26 32 38 37 41 44 42 42 43 45 46 46 44 40 37 35 26 30 34 34
8 4 12 18 17 17 18 7 4 2 15 17 5 6 8 8 14 14 22 25 26 23 27 26 22 28 37 42 43 43 45 46 46 45 43 45 45 44 41 36 33 34 34 34
19 9 10 5 15 17 11 11 3 6 8 12 7 16 9 10 10 14 22 26 26 24 22 25 24 31 40 41 39 41 40 42 40 42 41 40 42 43 43 43 36 35 35 36
13 15 16 25 12 12 20 15 11 9 7 6 16 25 3 10 9 11 19 25 25 17 15 20 25 23 29 34 36 41 40 41 43 43 42 41 40 38 43 43 45 37 38 38
8 6 10 9 14 16 8 13 19 5 5 18 9 8 7 5 6 9 9 8 10 8 8 7 10 18 19 32 37 38 39 43 43 42 41 39 38 38 43 45 42 46 41 42
11 6 12 19 13 6 8 17 12 19 15 11 22 5 6 1 7 9 14 15 16 13 11 12 12 16 19 32 37 39 40 43 43 43 42 40 40 42 43 43 43 43 47 44
6 6 4 13 15 21 14 12 21 22 24 22 16 13 10 9 9 8 14 14 14 19 17 15 17 17 19 27 35 37 37 39 43 42 42 43 43 43 40 38 40 41 43 43
6 5 7 7 10 22 24 20 19 23 23 19 6 7 10 13 9 7 11 13 14 10 8 9 17 23 24 25 33 38 39 41 42 41 43 42 40 39 39 38 38 38 39 40
4 4 8 6 6 18 20 31 17 11 16 17 15 10 9 8 8 10 10 8 12 9 11 11 16 21 22 32 41 38 41 40 42 44 40 40 39 39 39 38 35 36 36 36
9 8 4 6 7 14 24 18 20 10 7 10 12 10 12 13 11 10 9 9 12 9 7 9 10 13 29 35 34 38 37 39 40 41 38 38 39 38 36 36 36 34 33 34
19 12 4 3 3 7 4 8 13 9 11 8 9 11 12 11 6 5 4 2 8 9 9 7 13 19 18 27 34 30 30 35 36 36 38 39 40 38 36 37 36 33 32 32
22 18 9 6 4 6 6 5 13 7 4 5 10 9 9 8 6 4 4 3 4 1 5 7 13 21 28 31 25 33 35 33 33 38 41 42 39 38 38 37 34 32 34 33
3 3 8 12 10 9 8 6 4 8 6 1 4 7 8 6 6 7 5 2 2 2 2 5 9 8 26 29 32 28 26 29 43 44 43 38 40 40 38 34 32 32 32 31
5 5 3 4 5 8 25 13 7 6 4 7 5 4 10 8 8 6 5 4 5 2 1 1 2 10 21 25 33 27 27 44 44 37 33 34 35 36 33 34 32 32 32 29
7 5 5 5 5 12 12 7 6 9 9 4 6 8 12 9 7 7 7 8 8 6 6 10 3 5 4 20 26 25 38 36 34 32 32 33 34 36 36 37 32 32 31 26
10 7 3 4 1 9 15 13 8 14 12 11 13 10 11 13 8 10 9 8 8 7 7 10 10 8 4 10 27 29 24 32 33 33 31 31 33 32 32 33 35 32 29 28
2 4 6 2 10 12 11 14 7 12 13 15 16 15 10 12 9 10 9 8 7 7 8 11 8 7 11 13 5 21 22 28 22 25 31 30 28 29 30 26 21 27 28 35
3 2 5 1 4 4 6 12 10 20 17 13 13 17 14 13 11 9 10 6 6 7 11 10 11 10 12 18 22 16 14 37 35 27 22 20 24 28 25 31 27 21 27 14

GFSCGP_925_spd_033.txt.gz
Wind_Speed
6 5 11 12 6 6 4 3 5 3 1 2 4 7 21 22 18 21 20 20 21 22 24 34 33 34 32 32 36 38 37 39 39 36 34 32 30 25 22 18 19 18 23 22
3 15 9 9 9 9 6 7 13 3 7 4 7 10 19 23 27 27 25 22 22 21 16 24 31 34 34 39 40 39 41 42 43 40 37 34 34 31 27 23 19 19 19 23
12 6 10 9 7 8 6 10 11 9 2 3 5 2 12 20 13 14 18 22 21 22 23 18 27 35 35 36 41 43 44 44 44 43 39 34 31 30 26 25 21 19 19 20
7 9 9 7 8 9 9 7 7 5 4 3 6 4 7 17 18 16 16 18 20 21 20 18 21 32 38 39 40 42 43 44 44 45 40 35 29 26 28 27 24 23 21 22
10 14 17 13 19 9 10 6 6 3 4 1 5 0 6 17 19 21 19 21 22 22 21 22 22 34 42 39 39 41 46 45 43 47 41 38 31 33 29 28 25 25 22 24
17 5 14 11 9 14 4 3 4 1 3 6 16 8 7 12 25 24 21 23 25 23 23 23 34 34 33 36 36 39 41 44 45 48 47 42 37 35 34 28 26 26 24 25
8 20 4 7 9 6 5 7 3 3 4 10 9 6 14 9 21 26 25 26 27 25 24 23 23 21 30 34 37 37 39 39 43 46 45 45 42 42 39 35 28 25 23 27
8 5 18 7 11 11 8 13 6 7 3 6 4 9 8 15 11 19 25 26 25 24 24 25 24 27 33 38 39 39 39 40 40 44 45 46 44 43 41 38 32 32 26 27
11 10 5 13 7 16 6 11 12 3 2 3 5 8 5 9 11 10 14 15 22 24 25 26 26 29 35 36 41 43 41 42 41 44 44 42 44 41 38 39 33 34 32 31
6 2 8 9 8 9 14 8 4 2 11 12 4 7 7 11 17 11 13 13 20 23 23 24 23 26 34 36 39 40 42 44 45 46 44 43 45 44 40 40 37 35 32 33
1 3 4 7 8 21 5 8 3 6 6 7 3 11 8 10 13 12 15 17 21 22 24 24 22 28 36 38 36 41 40 40 40 41 41 39 39 38 39 43 40 38 33 32
6 3 15 18 6 15 15 11 9 5 12 8 13 11 3 17 14 10 11 13 18 22 22 20 21 22 28 32 34 38 39 39 43 43 42 42 41 38 39 43 44 42 40 36
8 4 1 7 3 4 10 11 17 15 2 19 10 6 7 9 7 10 11 12 12 16 14 16 18 16 16 28 33 36 39 43 41 40 41 40 39 38 41 45 43 46 44 41
3 3 3 7 5 2 7 9 17 17 11 18 19 5 3 6 11 11 9 10 12 14 16 18 16 17 16 30 34 36 39 41 41 40 41 40 40 42 42 46 43 42 47 44
4 2 4 7 14 16 15 13 25 21 22 16 15 13 13 9 10 10 10 7 6 8 15 17 18 16 14 21 28 32 33 35 40 40 39 43 41 42 40 41 43 43 41 43
3 3 5 6 11 13 16 18 24 30 23 13 11 7 9 15 8 7 11 10 10 11 15 16 17 18 20 21 32 36 35 38 40 40 43 40 40 40 40 38 37 39 41 41
2 2 5 4 10 12 11 28 21 17 17 19 19 9 9 8 9 13 13 10 11 13 17 14 15 15 14 25 34 35 40 39 41 42 39 39 40 40 40 36 35 38 39 38
5 4 3 5 6 8 13 9 17 19 13 8 5 12 12 15 15 13 13 11 12 11 10 10 8 8 22 32 32 35 32 35 38 39 37 37 39 40 38 36 38 38 37 40
19 7 3 3 4 10 16 8 4 9 11 7 16 11 8 11 4 5 6 8 9 11 11 10 13 16 21 25 28 26 26 32 34 32 35 38 39 37 36 37 40 37 34 33
20 19 7 4 4 7 2 13 20 14 17 17 13 12 10 8 7 11 7 7 8 6 5 7 12 10 16 21 32 28 25 28 30 35 39 40 40 39 39 42 41 40 38 37
9 9 11 10 5 8 6 21 9 7 13 6 10 11 10 8 8 7 7 4 7 5 5 5 9 12 24 22 26 26 28 30 43 42 41 38 38 41 43 38 34 35 35 31
8 9 8 9 8 9 10 9 8 11 21 14 7 8 8 7 8 8 7 5 4 7 6 6 7 10 19 20 25 20 23 41 39 37 34 37 40 39 37 37 34 33 33 33
10 6 9 7 7 3 1 5 13 16 15 13 11 4 13 11 5 6 6 6 7 7 5 7 5 7 10 7 24 19 31 32 32 28 32 34 36 37 35 35 36 34 36 35
9 5 6 7 4 4 6 11 15 18 8 10 10 7 10 13 7 8 7 6 7 5 7 10 10 9 10 14 6 13 15 17 20 26 28 29 31 32 34 34 33 32 28 26
12 7 10 6 3 3 9 12 17 14 8 14 17 17 13 10 9 9 8 8 7 8 8 13 11 10 11 15 17 16 12 7 17 18 15 18 18 19 18 15 20 27 28 29
8 10 12 6 5 5 8 10 16 9 9 11 16 18 17 15 12 9 10 7 7 9 11 11 13 13 13 15 19 20 18 17 16 17 14 12 13 16 22 20 30 31 32 32

GFSCGP_925_spd_036.txt.gz
Wind_Speed
6 5 13 10 5 5 5 4 4 2 2 4 7 6 9 16 16 19 20 20 19 21 22 26 27 28 29 31 34 36 35 36 34 35 33 31 29 25 21 17 16 16 18 19
5 17 10 9 7 8 5 5 8 4 6 2 4 8 10 17 23 24 22 20 22 19 17 21 26 28 30 34 39 39 41 40 39 38 37 32 32 30 26 22 21 18 19 20
19 5 12 12 7 10 5 13 6 5 4 2 4 6 7 12 2 12 15 19 17 18 19 18 25 31 33 34 38 42 45 44 43 41 35 30 28 28 29 28 26 22 21 19
6 8 18 8 13 12 9 6 6 7 4 4 3 5 5 13 20 16 15 17 18 19 17 15 21 28 35 39 38 39 38 40 43 42 36 34 29 25 30 34 30 26 23 21
11 15 15 17 14 10 8 8 9 6 6 2 3 1 6 10 14 17 18 19 20 21 19 20 20 35 39 37 38 40 42 43 43 46 43 40 31 34 35 32 27 25 24 22
8 5 14 11 7 11 8 4 6 5 4 7 10 9 5 8 19 20 17 20 21 21 22 21 29 33 31 31 32 35 38 42 43 45 46 40 35 32 33 29 25 26 26 24
5 13 3 6 8 5 7 8 2 2 3 11 8 8 14 10 16 22 25 25 24 23 22 21 21 20 29 32 35 36 38 38 41 44 45 44 43 40 39 36 29 27 27 26
10 6 18 6 10 11 9 9 6 8 4 7 7 9 7 11 11 18 20 24 21 20 21 23 23 26 31 36 37 35 37 39 41 43 45 46 44 40 41 40 35 32 30 29
8 10 3 9 6 17 6 11 11 5 2 2 5 6 6 5 11 14 19 17 19 21 22 24 25 31 33 34 39 40 39 40 39 43 45 43 43 40 38 41 39 37 32 30
3 1 6 18 6 8 10 9 4 1 6 6 5 4 6 10 13 14 9 16 19 19 22 23 22 28 34 37 40 40 41 42 45 45 43 44 46 46 44 43 41 41 37 33
5 4 4 9 11 18 4 6 3 6 6 7 0 6 8 10 14 18 19 17 18 18 20 22 22 31 35 34 34 40 40 39 40 40 40 40 39 40 41 44 44 41 39 35
1 3 7 6 2 9 21 9 7 6 8 6 4 7 4 10 11 14 14 14 12 13 18 20 22 22 28 33 34 37 38 38 41 41 41 42 41 40 41 45 46 43 40 38
6 2 2 4 8 3 5 10 12 10 3 12 8 7 6 4 7 9 10 9 9 12 9 13 15 17 18 30 33 35 37 42 40 38 39 38 39 38 41 45 46 45 42 41
3 2 3 3 2 4 6 7 8 17 14 15 18 9 3 6 9 10 10 10 10 9 8 10 12 17 17 29 34 35 38 39 37 38 38 40 41 43 46 47 44 46 46 44
3 0 2 3 10 7 12 15 14 12 22 15 13 18 10 9 11 15 12 7 7 10 8 10 13 16 15 22 31 33 34 34 36 36 36 40 39 41 42 41 43 44 45 47
5 2 2 3 9 10 11 14 16 15 10 11 18 9 9 15 10 7 11 9 10 10 10 10 10 13 12 19 27 33 35 38 41 40 42 39 37 39 41 41 42 43 45 44
3 2 2 4 4 10 16 10 15 9 8 9 16 10 7 9 10 14 13 10 12 11 11 10 13 13 14 21 31 31 36 36 39 42 40 39 40 40 42 40 40 43 43 40
4 1 1 4 2 8 4 9 7 18 17 15 8 12 15 16 13 15 17 17 15 13 11 11 11 13 21 28 28 32 29 34 37 38 35 35 38 40 37 37 39 41 40 40
16 5 3 4 6 13 18 5 4 4 8 13 14 9 10 17 11 7 8 10 14 12 13 13 18 22 24 24 29 27 26 29 31 33 34 36 38 38 37 38 41 40 36 37
13 14 6 2 5 8 2 2 6 4 6 7 7 18 15 7 8 10 8 8 12 10 8 9 17 16 20 29 30 29 27 30 31 34 39 39 40 38 38 42 42 40 36 34
4 6 16 13 7 6 5 5 5 8 7 16 10 14 14 11 12 16 4 7 8 8 9 12 15 11 19 24 29 25 25 26 40 37 34 36 38 41 44 42 34 33 33 31
7 7 6 7 6 17 1 3 5 3 8 12 17 18 16 11 9 7 7 6 5 7 6 1 5 7 5 11 22 14 19 37 24 25 27 30 34 35 31 33 30 32 34 34
6 9 4 9 6 6 4 9 7 5 8 10 18 19 16 16 8 8 6 6 5 6 5 10 11 12 16 10 5 6 2 6 9 15 22 22 20 20 19 21 22 21 23 26
4 4 4 6 12 12 7 6 6 6 5 13 15 14 8 6 4 9 9 8 6 7 10 11 15 12 10 15 12 4 4 6 5 13 17 18 17 14 11 12 15 17 20 20
6 4 4 8 21 13 7 5 5 4 8 12 6 9 7 19 13 14 11 11 10 9 12 16 13 12 12 16 18 15 11 5 6 6 7 9 13 18 21 23 6 5 8 14
7 10 8 9 8 9 5 5 8 8 7 10 3 13 10 13 16 14 14 10 10 11 13 14 16 16 15 15 15 14 13 13 18 20 19 19 22 24 25 27 29 33 25 24

GFSCGP_925_spd_039.txt.gz
Wind_Speed
15 13 22 24 18 16 8 12 10 10 6 8 14 14 12 16 22 21 21 22 23 25 25 28 29 29 27 27 26 27 27 28 25 24 22 21 20 19 17 17 17 17 17 16
8 24 20 15 16 17 18 17 17 10 7 4 6 10 6 15 23 24 23 23 24 21 20 25 29 31 31 30 30 28 30 30 31 26 25 20 22 20 19 16 16 16 15 16
25 7 20 19 17 19 23 24 17 8 2 4 5 14 7 11 15 18 22 22 20 23 24 23 28 33 34 33 33 33 34 32 31 27 22 19 14 16 17 18 17 18 19 18
20 18 24 24 26 22 23 18 17 16 9 11 6 14 7 12 17 18 20 21 23 23 23 23 27 31 35 36 33 32 31 31 31 31 26 28 26 24 25 23 21 21 23 21
17 24 20 26 27 23 20 14 15 15 13 12 13 8 14 5 12 19 22 24 25 25 25 26 26 36 39 36 34 33 33 35 35 35 34 30 27 25 19 20 21 27 24 25
19 7 23 16 20 22 12 13 8 5 9 15 21 14 17 13 16 16 21 23 24 24 26 25 33 32 32 32 30 30 32 36 36 36 37 33 30 27 22 21 20 21 22 22
21 14 15 17 16 20 20 18 7 10 11 15 15 14 20 9 17 19 20 25 26 26 25 24 23 25 31 33 35 34 33 34 36 37 36 38 37 32 30 27 24 21 20 20
19 16 20 19 20 13 28 22 9 14 15 13 7 14 14 17 19 19 17 21 23 22 22 24 23 26 31 35 36 36 35 36 36 38 38 39 37 34 33 29 26 24 23 22
18 19 11 20 14 21 17 24 23 10 1 4 13 14 10 9 20 16 19 17 19 24 25 28 27 31 31 33 36 38 38 37 37 39 38 38 38 38 34 33 32 27 26 21
6 7 12 26 16 25 15 18 11 14 13 12 8 12 13 19 18 21 18 18 20 21 23 24 24 29 35 35 37 38 38 39 41 41 40 39 39 40 40 34 34 31 30 30
2 5 5 16 22 23 10 19 11 11 9 9 8 9 10 16 20 21 22 21 20 20 22 23 23 30 36 35 33 40 39 39 37 38 39 38 37 37 36 35 36 35 36 37
4 2 11 16 13 21 25 18 23 11 13 13 6 8 2 12 11 17 21 19 19 20 21 21 22 24 28 33 34 37 38 38 41 41 39 40 39 38 38 40 38 38 37 39
5 3 11 7 11 9 22 22 23 21 11 18 12 5 8 7 5 9 11 14 12 11 13 16 15 17 20 30 35 37 39 42 41 38 39 38 39 39 40 41 40 38 40 39
4 1 9 13 6 3 5 10 25 25 17 17 21 16 11 5 9 11 13 14 11 11 13 15 14 16 18 28 32 35 37 39 38 39 39 39 40 43 42 43 40 40 41 37
5 1 4 5 7 6 9 10 10 17 22 23 22 24 19 16 14 10 10 8 9 10 9 12 14 15 16 22 28 33 36 33 35 36 38 42 43 41 39 38 39 41 39 41
6 1 2 7 9 10 14 13 14 14 16 16 22 25 8 13 19 20 18 17 13 14 14 13 15 15 16 20 27 32 32 36 38 38 42 41 37 38 42 42 41 40 39 37
4 2 2 6 7 12 15 21 17 14 13 15 22 18 14 17 13 16 18 17 16 13 12 11 12 13 14 24 31 32 35 32 35 38 37 34 36 39 42 41 39 40 40 38
4 4 3 5 2 10 10 4 6 13 17 21 22 19 16 16 18 18 16 18 19 18 16 15 13 14 23 27 28 33 29 33 34 34 30 30 33 36 34 35 39 39 39 41
17 9 4 5 12 16 18 7 3 5 13 7 16 21 20 19 19 19 16 17 20 20 16 14 17 20 19 22 29 27 27 29 29 31 34 37 38 35 34 36 40 40 37 38
14 14 7 5 8 12 2 9 12 4 15 6 3 7 14 17 15 12 14 19 20 18 15 15 21 15 16 22 23 25 27 27 29 33 39 37 34 35 37 42 41 35 35 37
5 8 16 14 10 8 11 6 1 12 1 5 5 8 11 11 13 14 17 13 15 14 15 16 13 12 12 10 19 23 24 27 39 28 24 27 30 30 28 21 19 19 20 23
6 6 7 11 10 21 8 13 11 5 6 11 13 13 14 15 20 20 22 17 13 13 10 9 7 7 2 7 20 20 22 23 14 16 21 24 24 24 22 22 19 20 20 20
6 10 5 9 8 13 11 15 22 18 16 18 16 19 16 19 20 20 18 13 7 6 3 6 8 8 7 3 9 12 10 12 13 14 17 19 20 21 22 25 29 32 26 33
8 10 8 12 17 22 23 25 21 20 19 18 17 21 18 21 21 20 16 11 7 6 8 10 11 11 10 10 9 8 10 10 12 13 15 16 17 18 20 22 21 19 23 27
11 6 8 15 20 20 24 23 25 23 21 21 18 17 18 20 22 17 11 10 10 10 10 13 11 12 16 14 14 11 9 12 12 12 13 14 14 18 16 13 12 22 26 30
16 19 12 13 13 13 17 15 16 20 22 20 14 14 14 17 11 10 9 8 8 10 12 12 14 14 15 15 15 15 13 14 14 13 14 17 18 16 15 15 16 12 10 11

GFSCGP_925_spd_042.txt.gz
Wind_Speed
24 19 25 27 24 20 16 16 20 16 11 13 16 15 14 13 18 18 19 20 22 23 24 30 30 29 28 27 28 27 27 27 25 24 22 21 20 18 17 16 15 13 13 13
18 28 23 21 20 20 22 17 20 13 7 12 15 15 14 12 17 18 19 22 23 21 22 26 31 31 31 30 29 29 29 28 28 25 24 21 21 19 19 18 16 13 12 12
24 14 24 23 21 23 23 23 18 17 14 15 14 16 15 14 14 15 19 21 21 22 23 24 28 33 33 32 32 31 30 29 27 26 23 19 18 18 19 20 17 15 13 12
24 17 25 24 26 24 25 23 19 18 12 13 16 17 20 22 17 18 18 20 22 24 24 23 27 32 35 35 33 31 30 29 27 27 24 24 24 22 22 21 20 18 16 15
21 26 23 27 26 25 21 17 18 20 17 17 22 10 16 13 17 19 19 21 23 24 25 25 25 35 38 36 34 32 31 30 30 29 29 26 25 24 19 20 19 20 18 17
27 16 24 23 19 23 14 16 14 15 16 19 23 20 19 17 18 18 19 19 22 23 25 26 32 32 34 34 33 31 31 32 33 32 31 29 27 27 22 20 19 19 19 20
26 25 18 15 23 20 22 20 10 12 16 20 22 22 20 8 19 21 18 20 22 23 24 25 24 26 33 36 37 35 33 33 33 33 32 33 32 28 26 22 22 18 19 19
22 20 29 24 26 22 28 24 11 17 15 17 17 22 24 23 20 7 19 17 19 21 21 24 26 29 33 36 37 36 33 33 34 34 35 34 34 33 30 27 26 22 21 19
22 24 29 20 22 24 25 25 28 11 5 8 15 19 16 14 21 24 23 19 18 21 23 25 26 33 35 36 36 37 37 37 37 39 36 36 35 35 32 30 28 28 23 21
16 18 18 25 26 26 20 26 21 15 16 19 13 19 13 22 23 22 23 22 20 21 22 23 23 29 36 38 39 40 40 40 40 37 36 37 37 36 36 31 31 28 27 26
14 15 22 23 26 29 23 18 24 17 17 12 11 12 16 18 17 23 23 22 20 20 20 21 22 30 35 35 35 39 40 40 38 39 39 37 37 37 36 36 34 33 29 28
15 10 12 26 20 26 28 24 29 13 23 19 14 8 7 7 16 18 19 20 20 19 19 19 20 23 28 33 36 38 40 40 41 39 38 41 39 37 37 37 37 34 33 31
4 14 15 14 21 23 28 28 25 25 16 21 17 5 8 7 1 3 9 12 15 15 14 15 15 17 20 28 32 36 38 41 40 38 39 37 39 38 39 38 38 38 37 35
6 12 23 18 17 19 28 29 28 28 20 18 19 16 11 5 6 10 7 6 9 10 13 14 15 15 17 25 27 32 35 36 36 38 39 39 40 42 40 40 39 39 38 36
6 14 7 14 1 4 14 27 30 30 27 25 19 21 18 11 7 4 4 4 2 4 8 11 13 15 17 20 25 30 34 33 35 34 36 38 41 38 36 37 37 37 37 38
6 4 6 14 10 7 10 12 15 25 29 27 26 23 11 11 11 17 19 16 14 14 8 9 12 13 15 18 23 27 31 34 35 33 38 37 35 35 37 37 38 37 38 38
6 5 6 15 12 10 15 22 20 18 18 18 23 17 16 19 14 13 12 13 14 15 16 11 11 13 13 17 21 26 30 29 32 35 34 34 34 34 35 33 32 34 35 35
7 7 7 6 7 16 11 10 25 24 20 20 18 16 15 15 16 17 17 18 19 20 17 15 14 12 16 18 19 21 22 29 31 33 34 33 33 34 31 33 37 37 36 37
13 9 8 11 13 10 6 4 8 10 16 17 18 13 18 18 19 20 18 18 19 21 20 17 19 19 18 15 20 20 23 27 30 32 34 35 34 31 32 36 37 28 28 29
13 12 10 8 16 18 4 18 8 6 11 11 5 8 6 9 14 13 15 17 16 18 18 18 25 24 22 23 19 20 25 26 29 34 36 30 31 31 33 30 27 26 27 27
12 12 15 13 13 9 11 7 3 13 5 7 1 4 5 6 8 15 20 22 18 16 18 21 21 20 21 17 15 19 22 26 34 25 26 27 29 27 26 25 26 26 27 26
11 10 11 15 17 22 10 11 14 10 10 12 12 12 12 14 14 15 17 21 20 20 20 25 17 17 16 14 17 18 21 25 20 22 23 23 23 25 25 26 26 27 27 30
13 12 10 11 12 11 9 13 14 14 16 16 18 17 17 19 18 18 18 20 20 18 16 16 13 11 12 12 15 17 19 19 20 20 20 21 22 24 23 26 25 26 28 28
17 16 14 15 18 22 18 18 20 19 20 21 20 23 20 23 23 21 19 19 17 15 12 11 9 8 8 8 12 15 16 19 21 19 19 20 22 23 23 23 23 24 25 25
13 12 18 22 23 23 24 19 22 25 22 24 25 25 22 22 26 24 23 20 16 12 9 11 7 7 6 5 8 13 17 19 20 19 19 19 20 22 20 16 14 21 23 20
17 24 18 18 16 15 19 17 17 19 19 18 22 23 24 23 24 23 23 16 7 5 7 5 5 7 7 9 7 5 10 13 14 15 16 16 14 16 15 13 6 5 10 18

GFSCGP_925_spd_045.txt.gz
Wind_Speed
23 19 26 30 28 25 22 22 25 22 16 20 19 18 20 20 18 17 21 20 22 22 22 30 30 30 29 29 29 28 26 25 23 23 21 20 20 18 17 16 15 13 12 11
18 29 27 25 27 28 27 24 22 22 15 13 19 20 18 16 20 17 18 21 21 22 23 26 32 32 32 31 31 28 27 25 26 24 22 21 19 19 18 16 17 17 14 13
28 20 27 27 25 27 27 27 21 18 20 19 15 19 18 20 15 19 17 22 21 23 24 25 28 33 34 33 32 32 30 28 28 25 22 19 17 18 18 18 18 18 15 14
30 25 29 27 28 26 27 26 23 19 19 17 22 16 20 18 20 18 19 21 23 24 25 25 26 33 35 35 34 32 32 31 30 29 24 25 23 20 22 19 19 19 17 16
31 24 22 29 25 27 24 21 23 22 18 17 19 19 18 25 23 23 21 20 23 25 26 26 27 35 37 36 36 34 32 32 31 31 31 26 25 23 18 19 19 20 18 19
29 20 23 21 25 22 22 20 21 22 18 19 25 20 18 16 25 27 23 22 21 24 25 26 33 35 35 36 35 34 32 32 33 31 33 28 26 26 23 21 20 19 19 20
28 32 23 23 23 23 20 20 13 16 18 17 25 23 19 18 19 19 19 23 21 22 24 25 26 26 33 35 35 34 35 34 34 33 32 34 28 28 23 21 22 19 20 20
22 24 34 22 28 25 27 25 16 22 19 18 24 27 24 25 13 14 22 20 22 23 23 25 25 28 33 35 37 36 37 36 35 36 35 33 32 30 30 26 23 23 20 19
25 30 33 30 25 27 23 27 26 23 23 15 20 24 26 23 27 20 15 21 24 24 24 25 27 31 35 35 37 39 36 38 37 38 36 36 35 35 32 31 30 24 21 20
28 19 30 32 25 28 28 24 23 18 22 20 16 16 17 21 18 25 25 17 22 24 24 24 25 29 34 38 40 41 42 39 44 42 40 39 38 38 36 31 30 29 28 23
32 23 17 27 28 28 25 22 27 21 18 15 12 9 18 19 22 22 21 26 21 22 24 24 23 32 36 36 37 39 40 41 38 40 41 39 39 38 36 36 34 33 29 26
37 13 21 31 28 27 27 29 28 17 24 18 12 2 11 10 8 17 21 20 24 20 22 22 24 23 31 35 37 38 40 41 41 41 39 40 39 38 38 37 36 34 35 32
5 15 17 23 25 26 31 31 25 27 19 21 16 6 8 6 2 14 16 19 19 19 20 20 21 22 21 31 33 36 37 41 41 39 38 37 38 38 39 38 37 37 36 35
9 17 24 19 25 23 29 31 30 25 20 18 20 15 12 6 7 5 6 12 16 15 15 15 19 22 21 27 28 31 34 38 38 38 39 37 38 41 39 37 37 37 37 37
7 15 20 26 13 11 30 31 31 31 24 25 15 19 14 13 13 12 11 8 5 4 3 5 9 10 10 19 23 29 32 32 36 37 37 38 37 36 34 36 38 38 38 37
8 12 19 22 18 7 13 22 31 29 28 23 23 15 17 12 9 7 8 8 5 5 10 9 10 12 13 17 22 24 30 32 30 32 37 36 36 35 36 35 36 35 37 37
12 10 11 15 18 11 17 21 19 26 26 25 21 19 11 9 8 4 6 6 5 7 7 8 10 9 12 17 19 21 24 28 31 32 30 35 35 37 36 35 35 39 38 34
12 10 8 11 17 21 13 17 16 13 14 14 13 9 10 8 7 10 9 9 11 11 10 9 10 11 14 17 19 22 22 26 29 29 34 32 35 34 34 35 36 32 31 34
13 10 7 10 14 7 21 14 17 23 19 15 14 13 10 9 9 11 10 11 12 14 14 12 15 17 18 15 21 16 18 21 26 29 33 36 32 33 33 35 31 31 31 31
14 12 11 8 14 19 7 11 1 2 10 15 21 17 15 10 11 12 10 10 10 12 11 13 16 18 16 13 18 17 17 20 24 31 30 29 30 32 33 31 33 33 33 33
12 12 14 13 9 11 5 8 5 11 5 9 4 5 9 7 7 12 11 11 11 13 14 18 16 16 17 17 20 16 17 20 31 24 26 28 30 31 31 31 30 31 31 30
11 13 12 14 17 20 11 2 6 7 6 10 11 12 9 8 10 13 14 14 14 15 16 19 16 18 21 17 16 15 16 25 20 23 25 27 29 30 30 29 28 29 29 30
11 11 10 12 13 8 10 12 12 6 5 8 10 10 11 12 14 15 14 14 15 17 15 17 18 17 14 14 12 13 19 16 18 22 23 25 27 28 26 29 27 27 26 27
13 11 13 15 17 16 16 13 12 12 14 15 15 14 15 17 17 17 15 15 15 16 18 19 17 11 12 10 13 16 15 15 18 20 21 22 24 24 25 24 25 25 24 26
15 16 17 20 22 22 22 19 18 18 19 20 20 20 18 19 18 17 17 16 15 17 25 15 10 13 11 8 10 12 14 15 18 18 19 19 21 23 21 16 14 21 15 17
16 21 17 18 19 17 18 17 20 21 22 24 22 20 20 22 21 20 18 16 14 19 16 15 16 6 3 2 5 6 10 13 16 17 17 19 19 21 21 18 9 5 5 2

GFSCGP_925_spd_048.txt.gz
Wind_Speed
24 17 25 30 26 23 24 20 24 22 22 23 20 16 20 9 15 24 23 22 23 23 22 29 29 29 29 30 29 32 27 26 31 26 24 19 19 16 16 14 12 14 9 9
21 28 26 27 25 27 27 24 25 23 25 14 21 17 26 25 36 20 22 13 22 22 22 22 30 31 31 33 32 32 30 30 29 26 25 22 18 19 19 17 15 14 11 13
28 19 26 27 26 27 28 27 24 21 21 24 18 16 20 27 17 23 21 31 24 23 23 21 24 30 32 33 34 34 34 29 30 26 24 21 20 19 22 20 19 19 18 15
28 29 29 27 29 26 27 27 26 25 19 17 22 16 20 16 21 25 27 24 23 23 22 23 23 28 33 33 35 36 36 33 31 30 26 23 21 19 19 21 20 20 21 18
32 27 31 29 26 28 25 25 26 26 20 18 20 17 14 21 21 21 22 21 25 25 25 25 24 32 35 35 35 36 36 35 31 34 27 30 24 23 23 22 21 24 25 23
32 26 27 27 24 27 24 22 25 23 18 17 23 19 17 17 21 19 21 20 26 26 26 25 31 33 32 34 36 36 36 36 34 33 39 26 30 24 23 23 21 21 20 25
28 33 29 26 25 26 21 22 14 15 17 17 22 20 13 19 24 23 22 22 21 26 25 24 25 24 33 34 36 36 37 35 36 33 34 39 24 34 27 22 28 21 22 25
23 26 35 21 28 25 28 26 15 22 18 17 22 23 20 21 19 27 24 23 21 22 24 26 25 25 34 35 38 38 39 39 38 39 36 36 36 25 34 29 20 27 22 24
23 30 26 29 25 25 26 26 24 22 20 16 19 20 23 24 23 19 14 22 23 22 24 26 26 30 35 36 38 40 40 41 41 41 37 35 36 34 29 33 27 20 26 21
31 17 32 33 26 29 28 22 21 17 21 20 19 23 19 22 22 22 18 16 20 22 23 24 24 27 35 40 42 41 39 42 42 41 40 39 37 40 37 29 36 30 23 24
31 26 23 29 33 27 22 21 25 20 16 15 14 14 15 25 25 21 22 17 16 20 23 22 23 30 37 39 38 39 39 38 38 40 40 39 39 36 37 35 33 37 32 31
19 22 22 25 28 32 29 28 25 12 21 15 14 5 12 5 23 20 17 21 19 17 23 21 22 24 30 34 37 40 39 37 41 40 38 38 35 36 37 38 36 34 33 33
12 14 20 26 23 31 31 30 29 22 19 20 14 7 5 11 12 18 18 14 18 13 13 21 22 22 21 32 35 37 39 41 37 36 36 35 37 37 37 37 39 36 37 35
7 8 20 20 21 19 29 30 29 28 17 17 17 7 7 7 4 3 11 14 13 15 15 20 20 21 21 31 34 35 39 39 39 37 37 36 36 38 37 37 37 39 38 38
10 13 18 27 24 22 27 27 30 30 21 22 18 18 13 11 10 5 7 12 15 15 13 10 16 20 20 26 33 34 34 38 38 40 39 40 39 36 37 36 37 37 39 39
18 9 11 17 22 20 17 31 30 29 29 23 25 17 17 15 12 9 11 10 10 9 8 7 4 3 4 19 24 34 34 34 37 37 39 39 39 39 38 38 38 37 37 38
13 10 7 16 18 22 19 15 27 26 26 24 20 15 19 20 18 12 10 7 7 4 4 6 5 4 2 7 22 27 33 33 31 34 33 37 39 37 38 38 37 37 37 36
12 12 9 9 12 18 10 12 16 14 25 24 19 15 11 17 17 14 9 5 2 1 3 4 5 7 13 14 16 23 25 30 31 27 30 31 34 36 35 36 36 36 36 36
11 10 7 5 8 7 12 14 18 11 9 5 18 18 9 11 10 11 9 7 6 6 4 6 11 13 12 20 26 25 25 27 27 28 30 30 31 33 34 36 36 36 35 35
11 10 8 9 7 12 9 16 5 12 12 9 4 2 7 6 6 7 12 12 12 12 10 10 14 16 15 23 8 19 26 23 26 30 30 29 33 32 34 36 35 34 36 36
11 8 10 9 6 4 11 16 4 10 5 16 19 12 2 5 9 10 10 11 9 9 11 13 12 12 14 17 21 8 3 16 29 31 29 32 34 35 33 33 33 33 33 31
9 12 11 12 13 11 18 10 6 7 11 15 17 18 16 14 13 13 12 10 10 10 12 16 13 12 15 17 20 18 10 17 13 25 27 29 30 31 29 32 30 31 31 31
5 6 6 8 12 10 14 14 14 11 8 10 11 13 11 12 12 12 11 12 11 12 11 19 19 16 16 22 10 11 19 14 10 15 24 27 28 27 28 28 27 26 28 27
15 13 8 11 16 16 12 12 12 11 10 9 10 10 12 11 14 14 12 11 11 12 12 19 23 21 14 8 13 12 10 12 13 17 20 22 23 24 25 20 25 24 25 25
13 18 16 17 17 15 19 17 16 16 14 13 13 14 13 14 14 12 12 14 14 14 15 22 24 17 18 11 7 5 11 15 16 16 17 18 20 24 22 18 18 25 21 22
15 18 14 16 22 19 19 18 17 17 19 17 16 16 15 13 13 13 11 11 13 15 15 23 24 17 22 7 9 11 12 10 13 14 15 18 19 21 21 18 10 9 10 7